Flag for China Weather past 2 weeks in Guilin, Guangxi, China

Now
57 °F

Fog.


Feels Like: 57 °F
Forecast: 56 / 84 °F
Wind: 3 mph from Northwest

Location: Guilin Airport

Current Time: Oct 23, 2014 at 6:08:42 AM

Latest Report: Oct 23, 2014 at 5:00 AM


Visibility: 1 mi

Pressure: 30.09 "Hg

Humidity: 94%

Dew point: 55 °F

Location of GuilinLocation

Historic Weather in Guilin — Graph

°F

Guilin temperature yesterday

Maximum temperature yesterday: 79 °F (at 2:00 PM)
Minimum temperature yesterday: 59 °F (at 6:00 AM)
Average temperature yesterday: 68 °F

Past Weeks' High & Low Weather Summary

 TemperatureHumidityPressure
High88 °F (Oct 20, 1:00 PM)100% (Oct 8, 5:00 AM)30.27 "Hg (Oct 8, 5:00 AM)
Low57 °F (Oct 9, 6:00 AM)19% (Oct 8, 4:00 PM)29.86 "Hg (Oct 9, 3:00 PM)
Average71 °F67%30.05 "Hg
* Reported Oct 8 5:00 AM — Oct 23 5:00 AM, Guilin, Weather by CustomWeather, © 2014

Note: Actual official high and low records may vary slightly from our data, if they occured in-between our weather recording intervals... More about our weather records

Advertising

Guilin weather history for previous 24 hours

 ConditionsComfort  
Time TempWeatherWind HumidityBarometerVisibility
5:00 AM
Oct 23
57 °FFog.3 mph94%30.09 "Hg1 mi
4:00 AM57 °FFog.1 mph94%30.09 "Hg1 mi
3:00 AM59 °FFog.3 mph94%30.09 "Hg1 mi
2:00 AM59 °FFog.No wind88%30.12 "Hg2 mi
1:00 AM59 °FFog.No wind88%30.12 "Hg3 mi
12:00 AM61 °FFog.1 mph88%30.12 "Hg3 mi
11:00 PM
Oct 22
64 °FHaze.3 mph68%30.12 "Hg3 mi
10:00 PM66 °FHaze.3 mph64%30.12 "Hg3 mi
9:00 PM66 °FClear.3 mph64%30.12 "Hg4 mi
8:00 PM70 °FClear.10 mph53%30.09 "Hg10 mi
7:00 PM72 °FClear.10 mph50%30.07 "Hg10 mi
6:00 PM73 °FSunny.10 mph47%30.07 "Hg10 mi
5:00 PM77 °FSunny.8 mph44%30.07 "Hg10 mi
4:00 PM79 °FPassing clouds.8 mph39%30.07 "HgN/A
3:00 PM79 °FSunny.8 mph39%30.07 "Hg10 mi
2:00 PM79 °FSunny.10 mph39%30.09 "Hg10 mi
1:00 PM77 °FPassing clouds.13 mph42%30.15 "HgN/A
12:00 PM75 °FPassing clouds.13 mph44%30.18 "HgN/A
11:00 AM73 °FPassing clouds.13 mph50%30.21 "HgN/A
10:00 AM72 °FPassing clouds.13 mph57%30.24 "HgN/A
9:00 AM66 °FSunny.3 mph78%30.21 "Hg10 mi
8:00 AM61 °FClear.1 mph100%30.21 "Hg4 mi
7:00 AM59 °FLight fog.1 mph100%30.18 "Hg4 mi
6:00 AM59 °FFog.3 mph94%30.15 "Hg2 mi
Weather by CustomWeather, © 2014

See weather overviewHow to use our weather pages